STARLINK-4186, 52880

Orbit data source: Space-Track

STARLINK-4186, 52880 is a payload satellite owned by SpaceX/Seattle (US) in LEO that was launched on Fri, 17 Jun 2022 UTC via an FALCON 9 launch vehicle from the Air Force Eastern Test Range (AFETR). Payload-class satellites include a variety of spacecraft equipped with specific instruments for various scientific and technological missions. These include communications satellites like Starlink; space stations such as the ISS; scientific satellites like the Hubble; Earth observation satellites from companies like Planet Labs, Umbra, and HawkEye 360; GPS; miniature CubeSats for education and research; and military/defense satellites.

Loading next visibility...
Identifier
52880, 2022-062BC
Orbit
LEO
Country
Flag of USUS
Related business
Manufacturer
SpaceX/Seattle
Mission
Operational Commercial Communications
Bus & Motor
STARLINK, Unknown motor
Mass
297 kg wet, ~275 kg dry
Launch date (UTC)
2022-06-17 (4 years ago)
Launch vehicle
FALCON 9
Launch site
Air Force Eastern Test Range (AFETR)
Object type
Payload
Rocket body
Debris
Shape & HBR
Box + 1 Pan, 10.1 m
Radar Cross Section
13.562 m², Large (>1 m²)

Expand to show TLE details & history
Last TLE update: 18 hours ago

TLE from 18 hours ago
0 STARLINK-4186
1 52880U 22062BC  25349.85889645  .00001126  00000-0  88831-4 0  9993
2 52880  53.2179  30.4523 0001397  87.7532 272.3620 15.08845140193417
Epoch: 2025-12-15T20:36Z
TLE epoch observation values (Epoch: 2025-12-15T20:36:48.653Z)
Latitude
-0.00002°
Longitude
-3.50186°
Altitude
540.586 km
Speed
7.593 km/s
True Right ascension
02h 01m 48s
True Declination
0° 00' 00"
Sunlit
Object was in full shadow at epoch
Visualization orbit readout
Latitude
Unknown
Longitude
Unknown
Altitude
Unknown
Speed
Unknown
Apparent Right ascension
Unknown
Apparent Declination
Unknown
Sunlit
N/A
Visualization observer readout
Local Sidereal Time
13:40:32
Azimuth
Unknown
Elevation
Unknown
Doppler factor
Unknown
Orbital elements
Apogee altitude
540.939 km
Perigee altitude
539.006 km
Semi-major axis
6,918.11 km
Eccentricity
0.00014
Inclination
53.2179°
RAAN
30.4523°
Arg. of periapsis
87.7532°
True anomaly
272.34601°
Mean anomaly
272.362°
Eccentric anomaly
272.354°
Mean motion
3.77192 °/min
Orbital period
95.44 mins
BSTAR
0.000088831
Loading maneuver chart data...
Computing Atmospheric mass density...
Loading historical data...
Loading historical data...
Loading historical data...
Loading historical data...
Loading historical data...
Loading historical data...
Loading historical data...

Documentation

Showing up to 5 results
|